Hourly Data Report for August 13, 2022

KUGAARUK CLIMATE
NUNAVUT
Current Station Operator: ECCC - MSC

68°32'15.060" N
89°47'47.020" W
15.80 m
2303094
71407
NBB

Download Data

Hourly Data (August 2022)
Hourly Data Report for August 13, 2022
TIME
LST
Temp Definition
°C
Dew Point Definition
°C
Rel Hum Definition
%
Precip. Amount Definition
mm

Wind Dir Definition
10's deg

Wind Spd Definition
km/h
Visibility Definition
km
Stn Press Definition
kPa
Hmdx Definition


Wind Chill Definition


Weather Definition


00:00 5.4 3.2 85 0.0 25 34   99.35     LegendNANA
01:00 5.4 3.6 88 0.0 24 32   99.39     LegendNANA
02:00 5.7 3.1 84 0.0 26 31   99.40     LegendNANA
03:00 5.5 2.6 82 0.0 26 26   99.45     LegendNANA
04:00 5.5 3.0 84 0.0 27 26   99.49     LegendNANA
05:00 5.0 3.8 93 0.0 27 26   99.52     LegendNANA
06:00 4.9 1.8 80 0.0 27 30   99.56     LegendNANA
07:00 4.9 2.2 83 0.0 27 32   99.58     LegendNANA
08:00 4.6 1.6 81 0.0 27 33   99.58     LegendNANA
09:00 4.6 1.8 82 0.0 27 34   99.59     LegendNANA
10:00 4.9 2.0 81 0.0 27 36   99.59     LegendNANA
11:00 4.8 1.9 81 0.2 27 36   99.61     LegendNANA
12:00 4.9 1.8 80 0.0 28 37   99.64     LegendNANA
13:00 5.0 2.1 82 0.0 28 35   99.66     LegendNANA
14:00 5.2 2.2 81 0.0 28 30   99.68     LegendNANA
15:00 5.3 2.1 80 0.0 29 32   99.71     LegendNANA
16:00 4.9 1.9 81 0.0 30 26   99.79     LegendNANA
17:00 4.9 1.9 81 0.0 29 23   99.83     LegendNANA
18:00 4.7 1.8 82 0.0 29 26   99.84     LegendNANA
19:00 4.7 2.3 84 0.0 29 23   99.89     LegendNANA
20:00 4.4 2.1 85 0.0 29 25   99.93     LegendNANA
21:00 4.7 2.5 85 0.0 29 26   99.99     LegendNANA
22:00 4.7 2.5 86 0.0 30 26   100.03     LegendNANA
23:00 4.5 2.7 88 0.0 30 28   100.10     LegendNANA

Notes on Data Quality.

Legend

  • E = Estimated
  • M = Missing
  • NA = Not Available*
  • [empty] = Indicates an unobserved value
Date modified: